Date String (YYYY-MM-DD hh:mm:ss) UTC,Instrument flags,Ambient pressure (hPa),Sample flow (lpm),Bypass flow (lpm),Sample temperature (°C),Ambient temperature (°C),ASC tube jacket temperature (°C),LED temperature (°C),Box temperature (°C),Sample RH (%),Span deviation,Mass concentration (μg/m³),Mass concentration (μg/m³),Mass concentration (μg/m³)
DateTimeUTC,F1_M11,P_M11,Q1_M11,Q2_M11,T1_M11,T2_M11,T3_M11,T4_M11,T5_M11,U1_M11,ZSPAN_M11,X0_M11,X2_M11,X1_M11
2022-11-10 07:00:00,,0818.5,5.00,0.00,22.1,21.8,00.0,30.8,24.1,18.1,-001.8,0017.13,0007.46,0006.61
2022-11-10 07:01:00,,0818.7,5.00,0.00,22.1,21.6,00.0,30.8,24.1,18.1,-001.8,0017.42,0007.49,0006.61
2022-11-10 07:02:00,,0818.7,5.01,0.00,22.2,21.5,00.0,30.8,24.1,18.1,-001.9,0016.70,0007.47,0006.61
2022-11-10 07:03:00,,0818.8,5.01,0.00,22.2,21.3,00.0,30.8,24.1,18.0,-001.9,0016.59,0007.46,0006.63
2022-11-10 07:04:00,,0818.9,4.99,0.00,22.2,21.2,00.0,30.9,24.1,18.1,-002.2,0016.03,0007.45,0006.68
2022-11-10 07:05:00,,0818.9,4.99,0.00,22.2,21.2,00.0,30.9,24.1,18.1,-002.3,0015.60,0007.53,0006.74
2022-11-10 07:06:00,,0819.0,5.00,0.00,22.2,21.1,00.0,30.9,24.1,18.1,-002.0,0016.96,0007.60,0006.78
2022-11-10 07:07:00,,0818.9,5.01,0.00,22.2,21.1,00.0,30.9,24.1,18.1,-002.0,0017.23,0007.66,0006.84
2022-11-10 07:08:00,,0818.9,4.99,0.00,22.2,21.1,00.0,30.9,24.1,18.1,-001.7,0017.85,0007.70,0006.89
2022-11-10 07:09:00,,0818.9,5.01,0.00,22.2,21.0,00.0,30.9,24.1,18.1,-001.9,0017.53,0007.72,0006.92
2022-11-10 07:10:00,,0818.9,5.01,0.00,22.2,21.0,00.0,30.9,24.1,18.1,-002.0,0017.45,0007.74,0006.96
2022-11-10 07:11:00,,0818.9,4.99,0.00,22.2,21.0,00.0,30.9,24.1,18.1,-002.1,0017.16,0007.78,0007.00
2022-11-10 07:12:00,,0818.9,4.99,0.00,22.2,21.0,00.0,30.9,24.1,18.1,-002.2,0016.99,0007.83,0007.05
2022-11-10 07:13:00,,0819.0,5.02,0.00,22.2,21.0,00.0,30.9,24.1,18.1,-002.1,0017.44,0007.86,0007.10
2022-11-10 07:14:00,,0819.0,5.01,0.00,22.2,21.0,00.0,31.0,24.1,18.1,-002.2,0017.41,0007.89,0007.14
2022-11-10 07:15:00,,0818.9,4.99,0.00,22.3,21.0,00.0,30.9,24.1,18.1,-002.0,0017.53,0007.92,0007.17
2022-11-10 07:16:00,,0818.9,5.00,0.00,22.3,21.0,00.0,30.9,24.1,18.1,-001.8,0016.64,0007.92,0007.16
2022-11-10 07:17:00,,0818.9,5.01,0.00,22.3,21.0,00.0,30.9,24.1,18.1,-001.8,0014.92,0007.89,0007.17
2022-11-10 07:18:00,,0819.0,5.01,0.00,22.3,21.1,00.0,31.0,24.1,18.1,-001.8,0015.24,0007.91,0007.19
2022-11-10 07:19:00,,0819.0,4.98,0.00,22.3,21.1,00.0,31.0,24.2,18.1,-001.9,0014.47,0007.92,0007.20
2022-11-10 07:20:00,,0819.0,5.00,0.00,22.3,21.0,00.0,31.0,24.2,18.1,-001.8,0014.61,0007.98,0007.22
2022-11-10 07:21:00,,0819.0,5.01,0.00,22.3,21.0,00.0,31.0,24.2,18.1,-001.3,0015.57,0008.05,0007.23
2022-11-10 07:22:00,,0819.0,5.00,0.00,22.3,21.0,00.0,31.0,24.1,18.1,-001.0,0016.15,0008.08,0007.25
2022-11-10 07:23:00,,0819.0,4.98,0.00,22.3,21.0,00.0,31.0,24.1,18.1,-000.5,0016.65,0008.05,0007.26
2022-11-10 07:24:00,,0819.0,5.00,0.00,22.3,21.0,00.0,31.0,24.2,18.1,-000.9,0016.76,0008.09,0007.26
2022-11-10 07:25:00,,0819.1,5.00,0.00,22.3,21.0,00.0,31.0,24.2,18.0,-000.7,0016.98,0008.12,0007.26
2022-11-10 07:26:00,,0819.1,5.00,0.00,22.3,21.0,00.0,31.0,24.2,18.0,-000.6,0017.28,0008.12,0007.24
2022-11-10 07:27:00,,0819.2,5.00,0.00,22.3,21.0,00.0,31.0,24.2,18.0,-000.7,0017.14,0008.08,0007.24
2022-11-10 07:28:00,,0819.1,5.00,0.00,22.3,21.0,00.0,31.0,24.2,18.0,-000.8,0017.73,0008.08,0007.24
2022-11-10 07:29:00,,0819.2,5.00,0.00,22.3,21.0,00.0,31.0,24.2,18.0,-000.7,0017.84,0008.07,0007.23
2022-11-10 07:30:00,,0819.1,5.00,0.00,22.3,21.0,00.0,31.0,24.2,17.9,-000.5,0018.02,0008.06,0007.23
2022-11-10 07:31:00,,0819.0,5.01,0.00,22.3,21.0,00.0,31.0,24.2,17.9,-000.4,0018.34,0008.01,0007.22
2022-11-10 07:32:00,,0819.0,5.01,0.00,22.3,21.0,00.0,31.0,24.2,17.9,-000.9,0017.42,0007.96,0007.23
2022-11-10 07:33:00,,0819.1,4.98,0.00,22.3,21.0,00.0,31.0,24.2,18.0,-001.1,0017.15,0007.99,0007.23
2022-11-10 07:34:00,,0819.1,5.00,0.00,22.3,21.0,00.0,31.0,24.2,17.9,-001.2,0016.58,0007.98,0007.21
2022-11-10 07:35:00,,0819.1,5.00,0.00,22.3,21.0,00.0,31.0,24.2,17.9,-000.8,0016.10,0007.97,0007.20
2022-11-10 07:36:00,,0819.1,5.01,0.00,22.3,21.0,00.0,31.0,24.2,17.9,-000.7,0016.20,0007.96,0007.17
2022-11-10 07:37:00,,0819.1,5.01,0.00,22.3,21.0,00.0,31.0,24.2,17.9,-000.9,0015.56,0007.93,0007.15
2022-11-10 07:38:00,,0819.1,5.01,0.00,22.3,21.1,00.0,31.0,24.2,17.9,-001.0,0015.93,0007.94,0007.11
2022-11-10 07:39:00,,0819.2,4.99,0.00,22.4,21.8,00.0,31.0,24.4,17.8,-001.4,0015.47,0007.91,0007.05
2022-11-10 07:40:00,,0819.2,4.99,0.00,22.5,22.3,00.0,31.1,24.5,17.8,-001.6,0014.56,0007.82,0006.99
2022-11-10 07:41:00,,0819.2,5.01,0.00,22.5,22.1,00.0,31.1,24.5,17.6,-001.8,0014.32,0007.68,0006.88
2022-11-10 07:42:00,,0819.2,5.00,0.00,22.5,21.9,00.0,31.1,24.5,17.6,-002.0,0013.32,0007.54,0006.76
2022-11-10 07:43:00,,0819.3,5.00,0.00,22.5,21.8,00.0,31.1,24.5,17.4,-001.8,0013.51,0007.40,0006.62
2022-11-10 07:44:00,,0819.3,5.01,0.00,22.5,21.7,00.0,31.2,24.4,17.2,-001.6,0013.26,0007.15,0006.43
2022-11-10 07:45:00,,0819.2,4.98,0.00,22.5,21.6,00.0,31.2,24.4,17.2,-001.5,0013.38,0006.93,0006.27
2022-11-10 07:46:00,,0819.3,5.01,0.00,22.5,21.5,00.0,31.2,24.4,17.2,-001.7,0012.83,0006.72,0006.10
2022-11-10 07:47:00,,0819.4,5.01,0.00,22.5,21.5,00.0,31.3,24.4,17.2,-001.7,0012.43,0006.55,0005.97
2022-11-10 07:48:00,,0819.4,4.98,0.00,22.5,21.4,00.0,31.3,24.4,17.3,-001.4,0012.20,0006.42,0005.87
2022-11-10 07:49:00,,0819.5,5.00,0.00,22.5,21.3,00.0,31.3,24.4,17.3,-001.2,0011.70,0006.28,0005.77
2022-11-10 07:50:00,,0819.5,4.99,0.00,22.5,21.3,00.0,31.3,24.4,17.2,-000.6,0011.37,0006.15,0005.68
2022-11-10 07:51:00,,0819.5,5.01,0.00,22.5,21.3,00.0,31.3,24.4,16.9,0000.0,0011.20,0005.99,0005.55
2022-11-10 07:52:00,,0819.4,5.00,0.00,22.5,21.2,00.0,31.3,24.3,16.3,0000.1,0010.61,0005.67,0005.24
2022-11-10 07:53:00,,0819.2,5.00,0.00,22.5,21.2,00.0,31.3,24.3,16.0,0000.3,0010.02,0005.24,0004.83
2022-11-10 07:54:00,,0819.3,5.01,0.00,22.5,21.1,00.0,31.3,24.3,16.2,0000.4,0009.27,0004.82,0004.45
2022-11-10 07:55:00,,0819.3,5.01,0.00,22.4,21.0,00.0,31.3,24.2,15.7,0000.7,0008.61,0004.53,0004.16
2022-11-10 07:56:00,,0819.2,5.00,0.00,22.4,21.0,00.0,31.3,24.2,15.5,0000.7,0007.62,0004.16,0003.81
2022-11-10 07:57:00,,0819.2,4.99,0.00,22.4,20.9,00.0,31.3,24.2,15.2,0000.5,0006.83,0003.83,0003.47
2022-11-10 07:58:00,,0819.2,5.00,0.00,22.4,20.9,00.0,31.3,24.2,14.8,0000.0,0006.18,0003.41,0003.07
2022-11-10 07:59:00,,0819.2,5.00,0.00,22.3,20.8,00.0,31.3,24.1,14.2,0000.0,0005.28,0002.88,0002.39
